Location: La B�doule
(43.2468°N, 5.5934°E)
Time: 04:05:49
(UTC+00:00)

Cosmos 2322 Rocket - Pass Details

Date: 07 June 2020
Orbit: 834 x 850 km, 71.0° (Epoch: 04 July)

Event Time Altitude Azimuth Distance (km) Brightness Sun altitude
Exits shadow 03:11:24 - 253° (WSW) 2,751 4.3 -7.6°
Reaches altitude 10° 03:12:27 10° 259° (W) 2,445 4.1 -7.4°
Maximum altitude 03:16:45 22° 310° (NW) 1,742 3.8 -6.9°
Drops below altitude 10° 03:21:05 10° 1° (N) 2,453 5.2 -6.2°
Sets 03:24:05 0° 16° (NNE) 3,390 6.4 -5.8°
